Location: Newark
(35.4036°N, 80.4356°W)
Time: 23:23:35
(UTC+00:00)

ISS - Pass Details

Date: 29 July 2019
Orbit: 410 x 420 km, 51.6° (Epoch: 20 August)

Event Time Altitude Azimuth Distance (km) Brightness Sun altitude
Rises 02:53:29 0° 327° (NNW) 2,368 1.4 -24.5°
Reaches altitude 10° 02:57:07 10° 8° (N) 1,498 -0.5 -25.0°
Maximum altitude 02:57:57 11° 23° (NNE) 1,455 -0.7 -25.1°
Enters shadow 02:58:14 11° 27° (NNE) 1,459 -0.8 -25.1°
